Orbital elements:
    C/2002 Q5 (LINEAR)
Epoch 2002 Nov. 22.0 TT = JDT 2452600.5
T 2002 Nov. 19.21353 TT                                 MPC
q   1.2428290            (2000.0)            P               Q
z  -0.0010369      Peri.  133.31720     -0.22340913     -0.93220805
 +/-0.0000846      Node    33.74578     -0.97459237     +0.21844967
e   1.0012887      Incl.  149.16457     -0.01606446     -0.28856178
Residuals in seconds of arc
020828 704  0.9+  1.8-    020903 A46  0.5-  0.2+    020913 215  1.2+  0.4+
020828 704  1.3+  1.7-    020903 J95  0.4-  0.6+    020913 215  0.1+  0.3+
020828 704  1.2-  1.5+    020903 379  1.6+  0.1+    020913 235 (0.9+  2.3-)
020828 704  0.4-  1.2+    020903 379  1.8+  1.3+    020914 170  0.1-  0.1+
020828 946  0.3+  1.1-    020903 379  0.7-  0.3-    020914 170  1.0-  0.5+
020828 946  1.7+  0.8-    020903 379 (2.1+  1.3+)   020914 170  1.5-  0.2-
020828 946  1.5+  1.3-    020903 118  0.1+  0.4+    020914 204  0.3-  0.5+
020829 557  0.6-  0.8-    020903 118  0.1-  0.5+    020914 204  0.6-  0.1+
020829 557  0.3+  0.9-    020903 118  0.2+  0.7+    020914 204  0.4-  0.0
020829 557  0.5+  0.8-    020903 127 (4.7+  2.6+)   020914 204  0.7-  0.0
020829 557  0.2-  0.8-    020903 127 (4.7+  2.7+)   020914 204  0.4-  0.2-
020829 557  0.0   0.3-    020904 762  0.2+  0.5-    020914 204  0.4-  0.0
020829 557  0.1-  1.1-    020904 762  0.7+  0.0     020914 204  0.3-  0.2+
020829 557  0.7+  1.1-    020904 762  0.6-  0.4-    020914 204  0.8-  0.4-
020829 557  0.6-  0.9-    020904 127  0.2+  0.8-    020914 204  0.3-  0.0
020829 557  0.4-  0.6-    020904 127  0.0   0.9-    020914 204  0.4-  0.1+
020829 557  0.3-  0.5-    020904 170  0.7-  0.6-    020915 213  0.6-  1.6+
020829 557  0.2-  0.2-    020904 170  1.2+  0.4+    020915 213  1.5-  1.7+
020829 557  0.1+  0.8-    020904 170  0.7-  0.6-    020915 613  0.4+  1.0+
020829 557  0.4-  0.9-    020904 J95  0.5+  0.6+    020915 613  0.2+  0.6+
020829 557  0.0   1.0-    020904 A46  1.8-  1.5+    020915 613  0.3+  0.6+
020829 557  0.7+  0.4-    020904 J95  0.9+  0.7+    020916 J95  0.8-  0.3+
020829 848  1.4-  0.1+    020904 A46  1.5-  0.6+    020916 J95  0.2-  0.2+
020829 848  0.9-  0.2-    020904 A46  0.1+  0.4-    020916 J95  0.9+  0.5+
020829 848  0.8-  0.1-    020904 A46  0.0   0.2-    020918 670  0.7-  0.1+
020829 649  0.3-  0.7+    020904 A46  1.1-  0.5-    020918 670  0.9+  0.3+
020829 649  0.5-  0.7+    020904 A46  0.0   0.1+    020918 670  0.0   0.3+
020829 151  0.5-  0.5+    020904 A46  0.7+  0.4+    020918 340  0.9+  0.2-
020829 151  0.5-  0.5+    020905 176  1.0+  0.2-    020918 340  0.6+  0.3-
020829 170  0.8+  0.5+    020905 176  1.0+  0.1-    020918 340  0.2-  0.8-
020829 170 (2.9+  0.6+)   020905 176  0.2+  0.3-    020918 340  0.1+  0.1-
020829 151  0.4-  0.0     020905 176  0.1-  0.1-    020918 349  0.4+  0.6-
020829 151  0.1-  0.3-    020906 046  0.1-  0.2+    020918 349  0.3+  0.0
020829 151  0.2+  0.4+    020906 046  0.6-  0.7+    020918 349  0.1-  0.3-
020829 118  0.2-  0.5+    020906 046  0.3-  0.0     020919 213  0.8+  0.2+
020829 118  0.7-  0.2+    020906 046 (3.9+  0.3+)   020919 213  0.7+  0.2-
020829 118  0.0   0.9+    020906 046  0.2-  0.7+    020919 213  0.4-  0.1-
020830 848  0.3+  0.0     020906 046  0.3-  0.6+    020921 939  0.4+  0.3-
020830 848  0.1+  0.1-    020906 046  0.2-  0.4+    020921 939  0.1-  0.2+
020830 848  0.7-  0.2+    020906 046  0.5-  0.6+    020921 939  0.9-  0.8+
020830 848  0.1+  1.5+    020906 046  0.3-  0.4+    020921 232 (1.2-  2.1+)
020830 848  0.0   0.2-    020906 939  0.8-  0.9+    020921 232  0.3-  1.4+
020830 349  0.0   0.4+    020906 939  0.3-  0.8+    020921 232  1.1+  0.7+
020830 349  0.4+  0.6-    020906 939  1.4+  0.3+    020922 J95  0.2-  0.6+
020830 349  0.1+  0.4-    020906 232 (2.5-  1.8-)   020922 J95  0.2-  0.2+
020830 349  0.2+  0.5-    020906 442 (4.6-  8.9+)   020923 340  0.9+  1.1-
020830 349  0.3-  0.6-    020906 232  0.2+  0.6-    020923 340  0.4+  1.1-
020830 046  1.2-  0.7+    020906 A46  0.9+  0.7+    020923 340  0.8+  0.4-
020830 046  0.4-  0.8+    020906 A46  0.1+  0.4-    020923 367  0.2-  1.1-
020830 046  0.1-  0.3+    020906 A46  1.4-  0.2+    020923 367  0.7+  1.0-
020830 046  0.7-  0.3+    020906 A46  0.5+  0.1+    020923 367  0.1-  0.7-
020830 046  0.3-  0.5+    020906 A46  0.9-  0.3+    020923 613  1.2+  0.5-
020830 235 (2.1-  0.5+)   020906 A46  1.0-  0.2-    020923 613  0.1+  0.4-
020830 170  0.2+  0.2+    020906 A46  0.4-  0.1+    020923 613  0.4+  1.1+
020830 170  0.2+  0.2+    020906 A46  0.4-  0.6+    020924 379  0.2+  1.5-
020830 157  0.6-  0.3+    020906 A46  0.4+  0.6+    020924 379  1.7+  0.5+
020830 157  0.5-  1.1+    020906 A46  0.7-  0.4-    020924 379  1.2+  0.1-
020830 157  0.1+  0.0     020906 A46  0.1-  0.2+    020924 379  1.4+  0.9+
020830 157  1.9-  0.5+    020906 A46  0.2+  0.2-    020925 379  0.3-  0.1-
020830 213  1.0+  1.1-    020907 246  0.3+  0.3+    020925 379  0.4-  0.4-
020830 213  1.0-  0.4-    020907 246  0.4+  0.3+    020925 379  0.5+  0.7-
020830 458  0.2-  0.5+    020907 246  0.5+  0.3+    020925 379  0.6+  0.1+
020830 213  0.9+  0.5-    020907 235 (1.1+  3.6+)   020927 939  0.1-  0.7-
020830 458 (2.2-  2.9-)   020907 939  1.8+  0.2-    020927 J97  1.9-  0.8-
020830 159  0.4+  0.4+    020907 939  0.3+  0.2+    020927 939  0.2-  0.4-
020830 458 (3.1-  1.4-)   020907 939  1.3-  0.3+    020927 J97  0.3-  0.1-
020830 159  0.9+  0.3-    020907 J95  0.0   0.4+    020927 939  0.3-  0.2-
020830 159  0.4-  0.5-    020907 J95  0.0   0.3+    020928 J97 (1.5-  3.3-)
020830 159  0.8+  0.2-    020907 J95  0.0   0.5+    020928 235  1.0-  1.2+
020830 159  0.1-  0.7-    020907 A46  1.1-  0.6-    020928 939  0.2-  0.0
020830 613  0.7+  0.1+    020907 A46  1.9-  0.2+    020928 939  0.0   0.1-
020830 613  0.5+  0.7+    020907 A46  1.4-  0.9+    020928 939  0.6-  0.4-
020830 A46  0.6-  0.2-    020907 A46  1.1-  0.7-    020929 A46  0.5+  0.2-
020830 613  0.3+  0.0     020907 A46  0.7-  1.4+    020929 A46  0.3+  0.2+
020830 A46  0.7-  0.3+    020907 A46  0.9-  0.6+    020929 A46  0.2-  0.5-
020830 A46  0.2-  0.0     020907 A46  0.6-  0.8+    020929 A46  0.1+  0.0
020830 A46  0.0   0.6+    020907 A46  0.1-  0.2+    020929 A46  0.7+  0.6-
020830 A46  0.4+  0.1+    020907 A46  1.0-  0.9+    020929 A46  0.7+  1.0-
020830 A46  0.7+  0.7-    020907 A46  0.5-  0.3+    020930 215  0.1+  0.2+
020830 A46  0.1-  0.5-    020907 A46  0.8-  0.5-    020930 215  0.1-  0.2+
020830 A46  0.3+  0.5+    020908 360  0.1-  0.1+    020930 215  0.4+  0.6+
020830 613  0.6+  0.8+    020908 360  0.3-  0.2-    021001 235  2.0-  0.5-
020830 A46  0.5+  0.1+    020908 246  0.3+  0.2+    021002 360  0.1+  0.1-
020830 A46  0.1-  0.4+    020908 246  0.4+  0.3+    021002 360  0.1+  0.1-
020830 613  1.2+  0.4+    020908 246  0.4+  0.3+    021002 599  0.1+  0.2+
020830 213  0.9+  0.5-    020908 246  0.2+  0.2+    021002 599  0.4-  0.1+
020831 704  0.1-  0.1+    020908 246  0.1+  0.3-    021002 599  0.4-  0.1+
020831 704  0.0   0.0     020908 246  0.4+  0.1+    021002 599  0.1+  0.0
020831 704  0.3-  0.1+    020908 A46  1.6-  0.3-    021002 599  0.1-  0.2+
020831 704  0.7-  0.3+    020908 A46  0.5-  0.1+    021002 599  0.2+  0.0
020831 848  1.2+  0.2-    020908 A46  0.4+  0.0     021005 349  0.2+  1.3+
020831 848 (2.6+  1.1+)   020908 A46  0.4-  0.6-    021005 349  1.7+  0.9+
020831 848  0.1-  0.6-    020908 A46  0.8+  0.1+    021007 213  0.4-  0.3-
020831 349  0.1-  0.4-    020908 A46  0.6+  0.0     021007 213 (2.7-  0.5-)
020831 349  1.0+  0.2+    020908 A46  0.5-  0.9-    021007 213  1.8-  0.3-
020831 349  0.2+  0.2-    020908 A46  0.6-  0.1+    021010 340  0.3+  0.5-
020831 349  0.1-  0.5+    020908 A46  0.9-  0.3-    021010 340  0.9-  0.1+
020831 349  0.1+  0.1+    020908 A46  1.3-  0.5-    021010 340  1.3-  0.2+
020831 157  1.1+  0.3+    020908 A46  0.3-  0.1+    021010 340  0.3+  0.1-
020831 157  0.2-  0.9+    020909 670  0.3-  0.2+    021011 J97  0.7-  0.3-
020831 157  1.1-  1.3+    020909 670  1.5-  0.9-    021011 J97  1.7+  0.4+
020831 170  0.2+  0.9-    020909 379  0.2-  0.9-    021011 213  0.1+  0.7-
020831 170 (0.7-  2.6-)   020909 379  1.1-  0.6-    021011 213  0.1-  0.1-
020831 170  1.0-  1.0+    020909 379  1.0+  0.6+    021012 349  0.0   0.2+
020831 J95  0.4-  0.0     020909 340  1.3+  0.4+    021012 349  0.1+  0.4+
020831 170  0.7+  1.2-    020909 340  0.2-  1.1-    021012 349  0.3-  0.2-
020831 J95  0.1+  0.0     020909 340  1.4+  0.1+    021012 349  0.2-  0.2+
020831 J95  0.3+  0.2-    020909 340  0.2+  1.2-    021012 349  0.1+  0.5+
020831 J95  0.3+  0.2+    020909 213  0.2+  0.2+    021012 349  0.1-  0.1+
020831 J95  0.3-  0.6+    020909 213  0.6-  0.1+    021012 367  0.3+  0.1+
020901 848  1.2+  0.9-    020909 213  0.0   0.0     021012 367  0.1-  0.2+
020901 848  1.0+  0.9-    020909 458 (3.5-  2.9-)   021012 367  0.1+  0.3+
020901 848  0.5-  0.7-    020909 458  0.2-  1.1-    021012 J87  0.0   0.1+
020901 848  0.7+  0.2-    020909 442  0.4-  0.9-    021012 J87  0.0   0.7-
020901 848  0.2-  0.6-    020909 442  0.2-  1.2-    021012 J87  0.5+  0.0
020901 379  0.2+  0.2-    020910 201 (2.2-  1.5-)   021012 445 (3.5-  0.2+)
020901 379  0.1-  1.2-    020910 201 (2.2-  1.3-)   021012 445  1.4+  1.7+
020901 379  1.2+  0.5-    020910 201 (2.3-  1.5-)   021012 445 (3.8+  1.0+)
020901 349  0.5-  0.2+    020911 A46  0.2-  0.1+    021012 J87  0.1-  0.1-
020901 349  0.5+  0.3-    020911 A46  0.6+  0.3-    021012 J87  0.3-  0.1-
020901 349  0.5+  0.1-    020911 A46  2.0+  0.2-    021012 J87  0.5-  0.3-
020901 349  0.5+  0.4-    020911 A46 (2.9-  0.3+)   021012 J87  0.3-  0.4-
020901 170 (3.4+  1.6+)   020911 A46  0.1+  0.6+    021012 J87  0.0   0.1-
020901 170  0.2+  0.8+    020911 A46  1.1-  0.0     021012 J87  0.2-  0.4-
020901 170  1.5+  0.8-    020911 A46  0.2-  0.1-    021012 J87  0.3-  0.6-
020901 J95  1.1-  0.2-    020911 A46  0.1+  0.1-    021012 J87  0.8-  0.2-
020901 J95  0.1-  0.5+    020911 945  1.0+  1.0-    021012 J87  0.1-  0.0
020901 J95  0.2+  0.5+    020911 945  0.1+  1.2-    021012 J87  0.1-  0.5-
020902 G78  0.1-  0.2+    020911 945  0.0   1.6-    021012 J87  0.3-  0.1-
020902 G78  0.3+  0.3-    020912 762  0.2+  0.2+    021012 J87  0.1-  0.6-
020902 G78 (2.4+  2.4-)   020912 762  0.5+  0.1-    021012 J87  0.2-  0.4-
020902 G78 (3.5+  4.0-)   020912 762  0.5-  0.2+    021012 J87  0.1+  0.1-
020902 341  0.1-  0.3+    020912 762  0.2+  0.2-    021012 J87  0.3-  0.5-
020902 341  0.4-  0.2+    020912 360  0.2-  0.1-    021013 442  0.6-  1.1-
020902 341  0.3-  0.2+    020912 360  0.3-  0.1+    021013 J97  0.2+  0.8+
020902 341  0.2-  0.1+    020912 127 (2.3+  0.2-)   021013 442  0.6-  1.5-
020902 379  0.9-  0.2-    020912 127  1.8+  0.2+    021013 J97  0.6+  0.2+
020902 379  0.1-  1.7+    020912 127 (2.3+  0.7-)   021014 367  0.5-  0.2+
020902 379  0.9+  0.3-    020912 A46 (2.7+  0.6-)   021014 367  0.0   0.3+
020902 379  1.3+  0.1+    020912 A46  1.1+  0.1+    021014 367  0.1+  0.0
020902 379  1.3+  0.1-    020912 A46  0.7+  0.6+    021015 939  0.5+  0.2-
020902 379  0.3+  0.5+    020912 A46  1.2+  0.4+    021015 939  0.3+  0.2+
020902 213  1.1+  0.2+    020912 A46  0.8-  0.2+    021015 939  0.2+  0.1+
020902 213  0.3+  0.2-    020912 A46  1.0-  0.3-    021016 213  0.3+  1.2+
020902 213  1.0+  0.1+    020912 A46  0.5-  0.6-    021016 213  0.3-  0.5-
020902 127  0.8+  1.0-    020912 A46  0.2-  0.2+    021016 213  0.1-  0.1-
020902 170  0.2+  0.0     020912 J95  0.2+  0.3+    021016 213  0.0   0.5+
020902 170  0.0   0.2-    020912 J95  0.1+  0.2+    021025 367  0.0   0.5-
020902 127  0.6+  1.1-    020912 J95  0.9+  0.2+    021025 367  0.4+  0.4-
020902 170 (4.9-  1.3-)   020913 613  0.5+  0.1+    021025 367  0.9+  0.3-
020902 J95  0.4+  0.3+    020913 613  0.2+  0.2+    021103 349  0.8+  0.9+
020902 A46  1.8-  0.6-    020913 613  0.0   0.6+    021103 349  0.1+  0.4+
020902 A46  0.8-  0.2-    020913 613  0.5+  0.3+    021103 349  0.3-  0.2+
020903 A46  0.4-  1.2+    020913 613  0.1+  0.2+    021103 349  0.1+  0.7+
020903 J95  1.7-  0.5+    020913 392  0.6+  0.4-    021103 349  0.3-  0.4-
020903 A46  1.2-  1.3+    020913 392 (1.6-  3.6-)
020903 A46  0.9-  0.5-    020913 215  0.4+  0.1+

